| time (UTC) | temp C | wind direction | speed KPH | gust KPH | rain 1hr cm | rain 24hr cm | rain mn cm | humidity % | barometer mb |
| 20260504081556 | 14 | 0 | 0.0 | 1.6 | 0.00 | 0.00 | 0.00 | 89 | 1018.4 |
| 20260504081031 | 14 | 0 | 0.0 | 1.6 | 0.00 | 0.00 | 0.00 | 89 | 1018.5 |
| 20260504080528 | 14 | 0 | 0.0 | 1.6 | 0.00 | 0.00 | 0.00 | 89 | 1018.4 |
| 20260504050533 | 16 | 0 | 0.0 | 0.0 | 0.00 | 0.00 | 0.00 | 83 | 1019.5 |
| 20260504045531 | 16 | 0 | 0.0 | 0.0 | 0.00 | 0.00 | 0.00 | 83 | 1019.4 |
| 20260504045030 | 16 | 0 | 0.0 | 0.0 | 0.00 | 0.00 | 0.00 | 83 | 1019.5 |
| 20260504044545 | 16 | 0 | 0.0 | 0.0 | 0.00 | 0.00 | 0.00 | 82 | 1019.6 |
| 20260504044030 | 16 | 0 | 0.0 | 0.0 | 0.00 | 0.00 | 0.00 | 82 | 1019.6 |
| 20260504043528 | 16 | 0 | 0.0 | 0.0 | 0.00 | 0.00 | 0.00 | 82 | 1019.6 |
| 20260504043055 | 16 | 0 | 0.0 | 0.0 | 0.00 | 0.00 | 0.00 | 81 | 1019.6 |
| 20260504042528 | 16 | 0 | 0.0 | 1.6 | 0.00 | 0.00 | 0.00 | 80 | 1019.6 |
| 20260504042031 | 17 | 0 | 0.0 | 1.6 | 0.00 | 0.00 | 0.00 | 79 | 1019.6 |
| 20260504041544 | 17 | 12 | 0.0 | 3.2 | 0.00 | 0.00 | 0.00 | 78 | 1019.6 |
| 20260504041031 | 18 | 0 | 0.0 | 4.8 | 0.00 | 0.00 | 0.00 | 77 | 1019.6 |
| 20260504040531 | 18 | 31 | 0.0 | 6.4 | 0.00 | 0.00 | 0.00 | 77 | 1019.7 |
| 20260504040046 | 18 | 51 | 1.6 | 6.4 | 0.00 | 0.00 | 0.00 | 77 | 1019.6 |
| 20260504035531 | 18 | 46 | 1.6 | 6.4 | 0.00 | 0.00 | 0.00 | 76 | 1019.7 |
| 20260504035031 | 18 | 78 | 3.2 | 6.4 | 0.00 | 0.00 | 0.00 | 75 | 1019.7 |
| 20260504034549 | 18 | 80 | 1.6 | 6.4 | 0.00 | 0.00 | 0.00 | 75 | 1019.7 |
| 20260504034030 | 18 | 64 | 1.6 | 6.4 | 0.00 | 0.00 | 0.00 | 75 | 1019.6 |
| 20260504033528 | 18 | 76 | 1.6 | 6.4 | 0.00 | 0.00 | 0.00 | 75 | 1019.6 |
| 20260504033048 | 18 | 84 | 0.0 | 8.0 | 0.00 | 0.00 | 0.00 | 75 | 1019.3 |
| 20260504032532 | 18 | 86 | 1.6 | 8.0 | 0.00 | 0.00 | 0.00 | 75 | 1019.5 |
| 20260504032029 | 18 | 46 | 1.6 | 8.0 | 0.00 | 0.00 | 0.00 | 74 | 1019.4 |
| 20260504031546 | 18 | 78 | 3.2 | 6.4 | 0.00 | 0.00 | 0.00 | 74 | 1019.4 |
| 20260504031028 | 18 | 77 | 1.6 | 4.8 | 0.00 | 0.00 | 0.00 | 74 | 1019.4 |
| 20260504030528 | 19 | 67 | 0.0 | 4.8 | 0.00 | 0.00 | 0.00 | 73 | 1019.5 |
| 20260504030047 | 19 | 56 | 0.0 | 4.8 | 0.00 | 0.00 | 0.00 | 73 | 1019.4 |
| 20260504025531 | 19 | 0 | 1.6 | 8.0 | 0.00 | 0.00 | 0.00 | 72 | 1019.2 |
| 20260504025031 | 19 | 58 | 1.6 | 8.0 | 0.00 | 0.00 | 0.00 | 72 | 1019.2 |
| 20260504024548 | 19 | 71 | 1.6 | 8.0 | 0.00 | 0.00 | 0.00 | 72 | 1019.2 |
| 20260504024030 | 19 | 78 | 3.2 | 12.9 | 0.00 | 0.00 | 0.00 | 72 | 1019.3 |
| 20260504023531 | 19 | 110 | 3.2 | 12.9 | 0.00 | 0.00 | 0.00 | 71 | 1019.2 |
| 20260504023049 | 20 | 69 | 4.8 | 11.3 | 0.00 | 0.00 | 0.00 | 71 | 1019.2 |
| 20260504022533 | 20 | 85 | 3.2 | 14.5 | 0.00 | 0.00 | 0.00 | 71 | 1018.8 |
| 20260504022033 | 20 | 106 | 4.8 | 14.5 | 0.00 | 0.00 | 0.00 | 70 | 1018.9 |
| 20260504021556 | 20 | 87 | 3.2 | 11.3 | 0.00 | 0.00 | 0.00 | 69 | 1018.9 |
| 20260504021030 | 20 | 80 | 1.6 | 12.9 | 0.00 | 0.00 | 0.00 | 69 | 1018.9 |
| 20260504020531 | 20 | 67 | 1.6 | 12.9 | 0.00 | 0.00 | 0.00 | 68 | 1018.7 |
| 20260504020125 | 20 | 57 | 4.8 | 12.9 | 0.00 | 0.00 | 0.00 | 68 | 1018.7 |
| 20260504015529 | 20 | 72 | 8.0 | 12.9 | 0.00 | 0.00 | 0.00 | 67 | 1018.7 |
| 20260504015029 | 20 | 81 | 6.4 | 12.9 | 0.00 | 0.00 | 0.00 | 67 | 1018.5 |
| 20260504014559 | 20 | 84 | 6.4 | 19.3 | 0.00 | 0.00 | 0.00 | 66 | 1018.4 |
| 20260504014030 | 20 | 83 | 8.0 | 19.3 | 0.00 | 0.00 | 0.00 | 65 | 1018.2 |
| 20260504013528 | 21 | 65 | 4.8 | 14.5 | 0.00 | 0.00 | 0.00 | 64 | 1018.3 |
| 20260504013055 | 21 | 77 | 6.4 | 14.5 | 0.00 | 0.00 | 0.00 | 64 | 1018.1 |
| 20260504012531 | 21 | 85 | 6.4 | 19.3 | 0.00 | 0.00 | 0.00 | 63 | 1018.2 |
| 20260504012030 | 21 | 78 | 9.7 | 19.3 | 0.00 | 0.00 | 0.00 | 63 | 1018.0 |
| 20260504011546 | 21 | 78 | 8.0 | 17.7 | 0.00 | 0.00 | 0.00 | 62 | 1017.8 |
| 20260504011030 | 21 | 66 | 6.4 | 16.1 | 0.00 | 0.00 | 0.00 | 62 | 1017.9 |
| 20260504010533 | 21 | 65 | 6.4 | 16.1 | 0.00 | 0.00 | 0.00 | 62 | 1017.9 |
| 20260504010044 | 21 | 79 | 4.8 | 16.1 | 0.00 | 0.00 | 0.00 | 62 | 1017.8 |
| 20260504005531 | 21 | 72 | 6.4 | 16.1 | 0.00 | 0.00 | 0.00 | 61 | 1017.7 |
| 20260504005031 | 21 | 57 | 8.0 | 17.7 | 0.00 | 0.00 | 0.00 | 61 | 1017.8 |
| 20260504004608 | 21 | 96 | 9.7 | 17.7 | 0.00 | 0.00 | 0.00 | 61 | 1017.9 |
| 20260504004031 | 21 | 86 | 9.7 | 17.7 | 0.00 | 0.00 | 0.00 | 60 | 1017.8 |
| 20260504003530 | 22 | 86 | 8.0 | 20.9 | 0.00 | 0.00 | 0.00 | 60 | 1017.7 |
| 20260504003051 | 22 | 67 | 11.3 | 20.9 | 0.00 | 0.00 | 0.00 | 60 | 1017.7 |
| 20260504002530 | 22 | 103 | 8.0 | 17.7 | 0.00 | 0.00 | 0.00 | 60 | 1017.8 |
| 20260504002030 | 22 | 80 | 9.7 | 19.3 | 0.00 | 0.00 | 0.00 | 59 | 1017.7 |
| 20260504001617 | 22 | 87 | 6.4 | 20.9 | 0.00 | 0.00 | 0.00 | 59 | 1017.7 |
| 20260504001030 | 22 | 70 | 8.0 | 20.9 | 0.00 | 0.00 | 0.00 | 58 | 1017.6 |
| 20260504000531 | 22 | 83 | 6.4 | 16.1 | 0.00 | 0.00 | 0.00 | 57 | 1017.7 |
| 20260504000100 | 22 | 94 | 9.7 | 17.7 | 0.00 | 0.00 | 0.00 | 56 | 1017.6 |
| 20260503235531 | 23 | 91 | 8.0 | 17.7 | 0.00 | 0.00 | 0.00 | 56 | 1017.7 |
| 20260503235031 | 23 | 80 | 6.4 | 17.7 | 0.00 | 0.00 | 0.00 | 56 | 1017.7 |
| 20260503234543 | 23 | 76 | 6.4 | 16.1 | 0.00 | 0.00 | 0.00 | 56 | 1017.7 |
| 20260503234031 | 23 | 86 | 8.0 | 16.1 | 0.00 | 0.00 | 0.00 | 55 | 1017.6 |
| 20260503233531 | 23 | 107 | 3.2 | 14.5 | 0.00 | 0.00 | 0.00 | 54 | 1017.5 |
| 20260503233049 | 23 | 46 | 6.4 | 16.1 | 0.00 | 0.00 | 0.00 | 54 | 1017.4 |
| 20260503232530 | 23 | 105 | 6.4 | 17.7 | 0.00 | 0.00 | 0.00 | 54 | 1017.5 |
| 20260503232030 | 24 | 80 | 6.4 | 17.7 | 0.00 | 0.00 | 0.00 | 53 | 1017.3 |
| 20260503231549 | 24 | 82 | 4.8 | 14.5 | 0.00 | 0.00 | 0.00 | 54 | 1017.3 |
| 20260503231031 | 24 | 81 | 6.4 | 14.5 | 0.00 | 0.00 | 0.00 | 53 | 1017.2 |
| 20260503230531 | 24 | 63 | 8.0 | 14.5 | 0.00 | 0.00 | 0.00 | 52 | 1017.3 |
| 20260503230107 | 25 | 111 | 4.8 | 16.1 | 0.00 | 0.00 | 0.00 | 52 | 1017.3 |
| 20260503225530 | 25 | 92 | 8.0 | 17.7 | 0.00 | 0.00 | 0.00 | 52 | 1017.3 |
| 20260503225032 | 25 | 96 | 8.0 | 17.7 | 0.00 | 0.00 | 0.00 | 52 | 1017.2 |
| 20260503224546 | 25 | 103 | 8.0 | 24.1 | 0.00 | 0.00 | 0.00 | 52 | 1017.2 |
| 20260503224034 | 25 | 105 | 6.4 | 24.1 | 0.00 | 0.00 | 0.00 | 51 | 1017.1 |
| 20260503223533 | 25 | 69 | 11.3 | 24.1 | 0.00 | 0.00 | 0.00 | 51 | 1017.2 |
| 20260503223045 | 26 | 74 | 9.7 | 20.9 | 0.00 | 0.00 | 0.00 | 51 | 1017.3 |
| 20260503222529 | 26 | 98 | 8.0 | 19.3 | 0.00 | 0.00 | 0.00 | 50 | 1017.3 |
| 20260503222030 | 26 | 92 | 8.0 | 17.7 | 0.00 | 0.00 | 0.00 | 51 | 1017.3 |
| 20260503221545 | 26 | 85 | 8.0 | 17.7 | 0.00 | 0.00 | 0.00 | 51 | 1017.4 |
| 20260503221030 | 26 | 132 | 8.0 | 19.3 | 0.00 | 0.00 | 0.00 | 51 | 1017.4 |
| 20260503220531 | 26 | 88 | 11.3 | 19.3 | 0.00 | 0.00 | 0.00 | 51 | 1017.4 |
| 20260503220053 | 26 | 86 | 9.7 | 22.5 | 0.00 | 0.00 | 0.00 | 50 | 1017.4 |
| 20260503215530 | 26 | 73 | 9.7 | 22.5 | 0.00 | 0.00 | 0.00 | 49 | 1017.4 |
| 20260503215031 | 26 | 75 | 9.7 | 14.5 | 0.00 | 0.00 | 0.00 | 48 | 1017.2 |
| 20260503214555 | 26 | 321 | 3.2 | 8.0 | 0.00 | 0.00 | 0.00 | 43 | 1017.2 |
| 20260503214035 | 26 | 30 | 3.2 | 9.7 | 0.00 | 0.00 | 0.00 | 43 | 1017.1 |
| 20260503213530 | 26 | 304 | 3.2 | 14.5 | 0.00 | 0.00 | 0.00 | 43 | 1017.2 |
| 20260503213047 | 26 | 285 | 4.8 | 20.9 | 0.00 | 0.00 | 0.00 | 43 | 1017.2 |
| 20260503212530 | 27 | 346 | 9.7 | 20.9 | 0.00 | 0.00 | 0.00 | 43 | 1017.3 |
| 20260503212031 | 27 | 51 | 6.4 | 16.1 | 0.00 | 0.00 | 0.00 | 44 | 1017.2 |
| 20260503211548 | 27 | 67 | 8.0 | 14.5 | 0.00 | 0.00 | 0.00 | 44 | 1017.2 |
| 20260503211030 | 27 | 36 | 1.6 | 12.9 | 0.00 | 0.00 | 0.00 | 44 | 1017.1 |
| 20260503210530 | 26 | 313 | 3.2 | 16.1 | 0.00 | 0.00 | 0.00 | 45 | 1017.1 |
| 20260503210046 | 26 | 31 | 8.0 | 19.3 | 0.00 | 0.00 | 0.00 | 44 | 1017.1 |
| 20260503205531 | 26 | 348 | 6.4 | 19.3 | 0.00 | 0.00 | 0.00 | 43 | 1017.1 |
| 20260503205030 | 27 | 34 | 3.2 | 12.9 | 0.00 | 0.00 | 0.00 | 44 | 1017.2 |
| 20260503204545 | 27 | 344 | 3.2 | 16.1 | 0.00 | 0.00 | 0.00 | 44 | 1017.3 |
| 20260503204031 | 26 | 78 | 1.6 | 17.7 | 0.00 | 0.00 | 0.00 | 45 | 1017.5 |
| 20260503203530 | 26 | 30 | 1.6 | 17.7 | 0.00 | 0.00 | 0.00 | 44 | 1017.4 |
| 20260503203102 | 26 | 39 | 6.4 | 17.7 | 0.00 | 0.00 | 0.00 | 46 | 1017.4 |
| 20260503202530 | 26 | 323 | 6.4 | 16.1 | 0.00 | 0.00 | 0.00 | 44 | 1017.5 |
| 20260503202031 | 26 | 37 | 3.2 | 16.1 | 0.00 | 0.00 | 0.00 | 45 | 1017.5 |
| 20260503201541 | 26 | 34 | 9.7 | 16.1 | 0.00 | 0.00 | 0.00 | 45 | 1017.6 |
| 20260503201032 | 26 | 331 | 6.4 | 19.3 | 0.00 | 0.00 | 0.00 | 46 | 1017.7 |
| 20260503200530 | 26 | 327 | 11.3 | 19.3 | 0.00 | 0.00 | 0.00 | 46 | 1017.9 |
| 20260503200049 | 26 | 18 | 8.0 | 20.9 | 0.00 | 0.00 | 0.00 | 46 | 1017.9 |
| 20260503195530 | 26 | 337 | 12.9 | 20.9 | 0.00 | 0.05 | 0.00 | 46 | 1017.9 |
| 20260503195030 | 26 | 330 | 1.6 | 19.3 | 0.00 | 0.05 | 0.00 | 45 | 1017.8 |
| 20260503194547 | 26 | 355 | 9.7 | 19.3 | 0.00 | 0.05 | 0.00 | 44 | 1017.9 |
| 20260503194030 | 26 | 54 | 4.8 | 22.5 | 0.00 | 0.05 | 0.00 | 48 | 1017.8 |
| 20260503193530 | 26 | 107 | 8.0 | 22.5 | 0.00 | 0.05 | 0.00 | 47 | 1018.1 |
| 20260503193045 | 26 | 34 | 11.3 | 22.5 | 0.00 | 0.05 | 0.00 | 46 | 1018.1 |
| 20260503192530 | 26 | 100 | 4.8 | 12.9 | 0.00 | 0.05 | 0.00 | 47 | 1018.3 |
| 20260503192030 | 26 | 298 | 3.2 | 9.7 | 0.00 | 0.05 | 0.00 | 45 | 1018.4 |
| 20260503191547 | 26 | 0 | 3.2 | 12.9 | 0.00 | 0.05 | 0.00 | 45 | 1018.4 |
| 20260503191030 | 26 | 128 | 3.2 | 17.7 | 0.00 | 0.05 | 0.00 | 47 | 1018.5 |
| 20260503190533 | 26 | 118 | 9.7 | 20.9 | 0.00 | 0.05 | 0.00 | 48 | 1018.7 |
| 20260503190054 | 26 | 135 | 9.7 | 20.9 | 0.00 | 0.05 | 0.00 | 50 | 1018.5 |
| 20260503185530 | 26 | 99 | 4.8 | 12.9 | 0.00 | 0.30 | 0.00 | 49 | 1018.7 |
| 20260503185034 | 26 | 86 | 4.8 | 14.5 | 0.00 | 0.30 | 0.00 | 48 | 1018.7 |
| 20260503184548 | 26 | 104 | 8.0 | 14.5 | 0.00 | 0.30 | 0.00 | 46 | 1018.8 |
| 20260503184030 | 25 | 46 | 3.2 | 19.3 | 0.00 | 0.30 | 0.00 | 49 | 1018.8 |
| 20260503183532 | 25 | 63 | 4.8 | 19.3 | 0.00 | 0.30 | 0.00 | 51 | 1018.8 |
| 20260503183040 | 25 | 343 | 3.2 | 19.3 | 0.00 | 0.30 | 0.00 | 50 | 1018.8 |
| 20260503182530 | 25 | 0 | 9.7 | 19.3 | 0.00 | 0.30 | 0.00 | 47 | 1019.0 |
| 20260503182029 | 25 | 61 | 12.9 | 19.3 | 0.00 | 0.30 | 0.00 | 49 | 1019.1 |
| 20260503181557 | 25 | 325 | 6.4 | 16.1 | 0.00 | 0.30 | 0.00 | 54 | 1019.2 |
| 20260503181030 | 25 | 64 | 8.0 | 16.1 | 0.00 | 0.30 | 0.00 | 53 | 1019.1 |
| 20260503180530 | 25 | 0 | 3.2 | 24.1 | 0.00 | 0.30 | 0.00 | 54 | 1019.1 |
| 20260503180053 | 24 | 304 | 4.8 | 24.1 | 0.00 | 0.30 | 0.00 | 54 | 1019.3 |
| 20260503175530 | 25 | 42 | 4.8 | 16.1 | 0.00 | 1.09 | 0.00 | 54 | 1019.4 |
| 20260503175030 | 25 | 88 | 1.6 | 16.1 | 0.00 | 1.09 | 0.00 | 54 | 1019.5 |
| 20260503174546 | 25 | 130 | 3.2 | 19.3 | 0.00 | 1.09 | 0.00 | 56 | 1019.6 |
| 20260503174030 | 24 | 87 | 9.7 | 20.9 | 0.00 | 1.09 | 0.00 | 56 | 1019.6 |
| 20260503173530 | 24 | 328 | 6.4 | 20.9 | 0.00 | 1.09 | 0.00 | 56 | 1019.7 |
| 20260503173044 | 24 | 319 | 4.8 | 19.3 | 0.00 | 1.09 | 0.00 | 57 | 1019.7 |
| 20260503172529 | 24 | 17 | 6.4 | 19.3 | 0.00 | 1.09 | 0.00 | 57 | 1019.7 |
| 20260503172029 | 23 | 37 | 8.0 | 19.3 | 0.00 | 1.09 | 0.00 | 57 | 1019.8 |
| 20260503171550 | 24 | 83 | 6.4 | 17.7 | 0.00 | 1.09 | 0.00 | 56 | 1020.0 |
| 20260503171029 | 23 | 73 | 6.4 | 24.1 | 0.00 | 1.09 | 0.00 | 61 | 1020.0 |
| 20260503170530 | 23 | 65 | 11.3 | 24.1 | 0.00 | 1.09 | 0.00 | 54 | 1020.0 |
| 20260503150530 | 21 | 69 | 11.3 | 22.5 | 0.00 | 1.09 | 0.00 | 71 | 1020.1 |
| 20260503131031 | 16 | 11 | 3.2 | 8.0 | 0.00 | 1.09 | 0.00 | 89 | 1019.9 |
| 20260503130531 | 16 | 296 | 3.2 | 8.0 | 0.00 | 1.09 | 0.00 | 90 | 1019.7 |
| 20260503110531 | 13 | 28 | 3.2 | 8.0 | 0.00 | 1.09 | 0.00 | 97 | 1018.6 |